Theta_e
351 353 351 349 348 348 348 350 351 351 350 350 350 351 351 352 355 353 353 353 353 354 357 356 356 356 358 357 357 356 358 355 355 353 352 353 351 351 351 350 350 348
352 355 356 352 351 352 350 351 352 352 351 350 351 352 354 359 357 354 352 351 353 354 355 358 357 357 357 356 357 357 356 356 354 360 355 353 352 352 352 351 350 350
354 355 355 352 351 351 350 352 353 352 352 352 352 353 355 358 355 353 351 350 350 350 352 356 357 357 357 357 356 357 357 355 355 357 357 353 353 352 351 352 352 352
355 355 355 354 353 352 352 352 352 352 353 353 352 353 355 357 354 353 353 360 353 351 353 356 358 357 356 356 357 357 357 356 357 356 354 354 355 354 352 352 353 353
355 354 355 354 354 354 353 352 352 353 354 354 354 354 355 354 353 352 352 354 354 353 355 357 358 357 357 357 357 355 356 355 355 355 353 352 354 356 355 354 353 351
355 355 355 354 354 354 353 353 353 354 354 355 355 355 355 354 352 352 352 354 355 354 355 355 355 357 357 357 358 356 356 356 356 354 353 353 353 355 356 353 350 349
352 354 355 355 354 354 354 354 354 356 355 355 356 355 355 354 353 353 353 355 355 355 353 353 353 354 356 356 356 355 355 355 354 353 352 352 353 353 354 352 351 350
352 353 355 355 354 354 354 354 354 355 356 356 354 355 355 355 354 354 355 356 356 354 353 353 353 352 353 353 353 353 354 356 355 352 351 351 351 351 352 353 352 350
355 355 356 355 354 354 354 354 354 354 356 355 354 354 356 355 355 355 357 357 355 354 352 353 352 351 350 351 351 352 352 354 356 355 353 352 351 351 351 352 352 352
355 356 357 356 354 354 354 354 355 354 356 354 354 354 355 356 355 354 356 353 351 351 350 352 352 351 350 350 350 350 350 351 353 354 354 353 352 352 351 351 351 350
348 352 354 355 354 354 354 354 354 355 355 355 354 355 355 355 354 354 353 350 350 349 348 349 351 351 350 350 351 351 350 351 352 353 353 352 352 352 356 351 351 351
348 347 345 349 350 352 354 354 354 354 354 355 355 354 354 354 354 352 353 350 349 349 348 348 349 351 350 351 353 352 352 352 352 352 351 351 352 353 352 353 351 350
349 350 350 350 351 350 351 351 352 353 354 353 355 354 353 353 352 350 352 351 350 350 350 351 352 352 352 352 352 353 352 352 352 351 351 352 352 352 353 353 352 351
349 350 350 350 349 349 349 349 350 351 353 353 354 352 353 352 350 350 350 352 352 352 352 352 352 353 353 351 351 351 352 352 352 353 352 351 352 352 353 353 353 352
348 349 348 349 349 347 346 346 347 349 350 349 352 353 353 351 350 350 349 349 351 352 352 354 355 354 354 352 350 350 351 352 352 352 351 351 350 352 353 353 353 353
347 348 346 346 348 347 347 347 347 347 347 348 349 352 351 350 350 350 350 350 350 351 352 352 353 356 359 361 359 353 352 353 353 350 350 349 350 350 349 350 353 353
345 346 346 347 349 349 347 346 346 347 346 347 349 350 348 349 349 349 349 349 350 349 349 351 354 356 354 344 349 356 355 351 351 349 349 348 348 347 347 349 351 353
344 345 346 347 348 348 344 343 346 348 347 346 346 346 348 350 348 348 350 348 348 348 348 350 348 347 338 341 344 347 354 351 349 349 350 350 349 349 350 350 350 351
346 346 346 347 348 345 344 345 345 347 347 346 346 347 349 349 347 349 350 348 347 347 349 348 340 338 335 337 337 337 343 348 344 347 347 349 350 349 348 348 348 350
348 348 348 347 347 345 346 346 347 347 346 346 347 348 345 345 348 347 349 348 347 348 345 341 338 338 333 333 333 334 335 344 344 342 344 344 346 348 350 349 349 349
350 349 348 347 346 346 346 346 346 344 344 346 347 345 344 344 347 347 347 347 347 345 341 338 337 331 329 330 329 330 337 345 339 340 339 340 341 341 343 346 349 351
351 350 349 347 346 345 346 346 345 344 343 345 347 346 345 346 345 346 349 348 347 342 338 332 329 326 326 326 326 327 338 337 335 335 335 336 337 338 343 344 348 349
352 351 349 347 346 345 345 346 345 345 344 347 347 345 341 339 340 343 346 345 342 338 333 330 329 325 321 321 321 324 337 332 332 332 333 333 334 337 340 344 346 344
351 351 349 348 347 346 345 345 346 346 345 346 339 338 337 337 339 341 342 342 339 334 333 330 327 327 320 319 318 320 338 330 329 329 329 330 333 336 339 343 348 352
350 350 349 348 348 347 346 344 342 341 341 338 337 337 336 336 340 337 338 338 336 335 343 331 328 327 319 318 317 318 330 328 329 326 327 328 329 333 335 334 335 341
349 349 348 348 347 346 344 341 340 337 335 336 336 337 337 337 337 336 336 336 338 339 337 330 327 325 327 314 314 316 320 330 326 326 327 327 326 333 332 331 330 330
Wind_Speed
7 6 6 6 6 6 6 6 5 6 6 6 6 6 6 5 3 3 3 3 3 3 3 4 4 5 6 5 5 4 4 4 3 3 3 3 3 4 5 4 3 3
8 7 6 5 5 4 5 6 6 6 6 5 5 5 4 3 4 4 3 3 3 3 3 3 4 5 5 5 4 4 3 3 4 2 3 3 4 4 5 4 3 3
7 7 7 8 8 7 7 6 6 6 6 6 5 4 5 3 3 3 3 4 4 4 4 4 4 4 5 4 4 4 4 3 5 4 3 4 3 4 4 3 2 3
7 8 7 7 6 7 6 6 5 4 4 4 6 5 5 4 3 3 3 4 4 4 4 4 5 5 4 4 3 4 4 4 4 4 4 3 3 3 3 3 3 3
8 7 6 6 5 5 6 6 7 6 7 7 5 5 5 4 4 4 4 4 4 5 4 5 6 6 5 4 4 4 4 4 4 4 4 4 4 3 3 3 3 5
7 7 7 7 6 6 6 7 7 7 7 6 7 5 5 5 5 6 5 5 5 6 5 5 6 6 5 5 5 5 5 5 5 4 4 5 5 4 4 4 4 5
9 8 8 7 7 7 7 7 6 6 6 6 4 6 6 6 6 7 7 6 6 6 6 6 5 5 5 5 5 5 5 5 4 4 5 5 4 4 4 4 4 4
9 8 8 7 8 8 8 7 7 6 6 5 6 7 6 7 7 7 7 6 6 6 5 5 5 4 3 4 4 4 4 4 4 4 4 5 3 4 5 4 3 4
9 9 8 9 9 8 8 8 7 6 6 7 7 6 6 7 7 7 6 5 4 3 2 2 3 4 4 4 4 5 5 4 4 5 5 5 5 5 5 4 4 4
8 8 9 9 9 7 8 7 6 7 6 7 7 6 6 6 6 5 3 4 4 4 4 3 3 4 4 5 5 5 5 5 5 4 5 5 5 5 5 4 5 5
2 5 6 7 7 7 8 7 8 7 7 7 6 5 5 5 5 4 4 4 5 6 5 5 5 4 5 5 5 5 6 6 5 4 4 4 4 4 4 4 4 5
8 5 6 7 8 7 7 8 8 8 7 6 5 5 4 5 6 5 5 5 4 5 5 6 5 6 6 6 6 6 6 5 5 4 5 5 5 5 5 4 5 6
11 10 9 9 8 6 5 5 6 6 7 7 5 4 4 5 4 5 4 4 4 5 6 5 6 6 6 6 6 6 6 5 5 5 5 5 4 5 4 5 5 5
10 9 8 7 5 5 5 6 5 4 4 3 3 5 5 6 6 6 5 5 5 6 7 7 7 7 6 6 5 5 5 5 5 4 4 3 3 3 4 4 5 5
7 5 4 6 6 7 7 6 6 5 3 2 5 6 6 6 6 5 5 6 6 6 5 5 6 7 6 5 5 5 4 5 5 3 3 3 3 3 2 3 4 5
5 4 5 6 7 8 8 6 4 3 4 6 8 6 5 4 5 5 5 6 6 6 5 5 4 3 7 10 8 4 4 3 3 1 1 2 2 3 4 5 5 5
5 6 6 8 6 5 4 5 4 5 7 7 6 5 5 5 5 5 5 4 4 4 4 3 2 2 5 5 4 6 4 3 2 1 1 2 2 4 5 6 5 5
6 6 6 5 3 4 6 6 7 8 7 7 6 5 5 5 5 5 4 4 3 3 2 2 2 4 6 6 5 3 3 2 2 2 3 5 4 5 5 5 5 5
4 5 5 6 6 5 6 7 8 7 6 5 6 5 5 6 5 5 4 4 4 4 3 3 3 4 6 6 5 4 1 2 2 1 1 3 3 4 5 6 5 5
6 6 6 6 5 6 6 5 5 5 5 4 4 4 4 3 3 2 2 5 4 2 4 4 4 5 5 4 4 3 3 1 0 1 1 2 2 2 3 5 5 5
7 7 7 6 6 6 6 6 5 5 5 5 4 4 4 4 3 3 2 5 5 5 6 4 3 4 4 5 5 5 5 4 3 2 2 2 2 2 3 4 5 5
8 8 7 6 6 6 6 6 6 6 5 4 3 4 3 3 3 5 6 8 6 6 6 5 3 4 5 5 6 7 6 4 4 4 4 4 4 5 5 5 3 3
8 8 7 7 7 7 7 6 6 5 4 4 4 4 5 5 5 4 6 7 7 6 7 5 3 3 4 5 5 6 5 4 3 4 4 4 4 4 5 4 3 3
7 7 8 8 8 9 9 8 7 6 7 6 7 7 6 6 6 6 6 7 7 7 7 7 4 3 4 5 5 5 4 2 2 2 2 3 4 4 2 4 6 11
7 7 8 8 9 8 8 9 8 8 7 6 6 6 6 6 6 7 6 6 7 7 10 8 5 4 5 4 4 4 2 1 1 1 1 1 3 3 4 4 4 6
6 8 8 8 8 7 6 7 6 6 6 6 5 6 6 6 6 7 8 6 6 6 6 6 6 3 3 4 2 2 2 0 1 1 1 1 2 2 4 4 2 2
Wind_Direction
183 176 177 182 186 185 175 173 180 174 180 177 182 197 195 206 198 172 176 177 186 191 202 199 204 211 218 214 209 207 206 218 227 220 227 225 233 240 255 256 252 250
187 180 178 174 179 184 181 178 179 181 183 186 195 191 203 190 192 184 187 198 206 212 211 210 206 206 207 203 203 202 220 221 231 229 230 240 249 257 257 249 265 294
180 181 178 180 183 184 181 185 184 186 180 194 194 191 193 179 174 186 196 193 205 212 212 212 214 214 214 213 204 206 214 227 235 241 233 238 246 242 249 256 261 277
181 183 185 185 179 176 173 172 188 187 180 184 203 202 195 188 180 199 205 214 213 221 214 203 206 206 209 211 201 211 214 220 230 225 237 251 248 237 247 256 268 271
178 179 179 177 178 170 166 179 188 189 192 199 198 206 205 200 197 211 218 229 217 220 205 201 199 201 199 201 201 216 213 219 229 226 232 245 247 233 242 239 260 264
179 175 174 175 176 173 181 192 195 192 195 190 200 195 208 201 206 210 215 217 214 207 203 199 197 202 193 196 200 211 212 215 226 222 234 241 250 239 242 233 237 252
182 178 179 178 177 182 190 201 202 201 198 198 180 204 201 207 209 216 215 212 205 204 202 202 203 205 198 194 195 201 208 209 220 222 233 248 249 257 248 244 244 250
186 186 182 180 181 188 196 200 206 206 201 186 201 208 204 214 217 219 222 213 203 206 209 211 209 203 198 188 191 197 210 209 217 222 232 245 244 249 245 246 250 254
178 185 186 185 187 191 198 199 201 202 194 201 208 206 210 216 218 220 221 205 192 180 203 228 226 218 209 200 211 210 213 217 216 218 223 236 241 245 247 245 249 251
179 184 182 182 186 190 194 197 196 198 199 208 211 205 207 215 213 208 186 173 174 173 188 211 218 224 220 216 218 218 220 220 221 223 225 229 235 243 244 237 242 251
261 174 173 172 182 186 190 191 198 202 204 209 208 210 206 201 214 211 183 176 185 196 206 215 225 222 224 225 226 224 221 220 220 220 223 227 230 231 229 224 234 231
208 170 177 192 187 194 191 192 199 202 196 199 196 202 203 205 204 206 198 198 190 196 205 219 226 228 227 226 221 219 221 222 220 219 226 232 237 230 232 233 227 230
188 187 178 184 186 175 170 180 197 201 193 191 188 196 208 216 205 192 195 191 201 205 213 218 221 221 221 218 217 214 216 216 217 218 225 229 230 232 244 241 232 230
192 186 182 172 153 157 183 202 201 202 205 181 178 200 209 209 198 187 190 195 202 206 213 214 219 216 210 211 212 214 215 220 219 219 222 229 238 243 239 231 229 232
191 177 146 166 176 180 193 199 203 200 177 180 217 209 208 203 194 187 185 202 210 219 218 213 212 212 203 197 202 214 216 219 212 219 229 245 260 271 264 249 240 234
179 172 174 183 188 192 196 191 174 167 175 205 216 213 204 185 187 194 194 199 207 215 219 222 224 200 208 206 202 197 205 213 209 196 216 252 276 273 274 269 259 245
175 189 184 193 189 168 161 155 159 182 190 204 204 197 186 189 188 192 197 195 197 196 201 215 209 162 134 109 148 210 197 197 190 188 251 244 206 241 250 262 261 253
186 188 189 190 173 157 142 168 194 208 197 198 196 199 189 179 180 192 186 183 189 191 198 163 93 88 103 109 112 131 178 170 169 142 216 239 217 233 251 261 263 259
181 187 195 192 181 139 146 173 177 183 186 185 192 189 177 181 183 179 185 176 181 184 166 119 89 101 102 109 113 111 107 132 155 216 246 258 245 242 245 247 252 257
185 187 187 192 157 161 188 176 177 179 175 178 168 164 169 166 166 157 168 177 170 156 99 89 93 87 72 71 57 45 20 29 163 201 239 258 254 246 252 253 248 241
182 179 188 182 175 174 178 179 177 169 168 168 158 158 164 182 165 171 189 129 157 144 128 116 92 77 67 54 40 26 21 58 40 37 20 359 342 309 287 267 248 235
177 181 183 177 173 174 177 175 177 179 173 167 150 158 175 172 182 174 167 158 143 131 126 119 89 56 50 43 42 31 36 37 22 21 1 352 341 330 327 321 287 218
183 180 179 173 172 175 177 174 180 176 168 164 162 162 146 150 141 130 132 133 131 129 129 126 123 79 65 53 49 35 42 30 23 6 1 343 333 319 335 338 22 49
193 182 179 176 176 181 178 179 177 174 175 166 161 155 155 140 132 126 129 133 136 142 147 141 141 124 102 70 48 34 34 50 27 24 350 340 322 332 3 23 39 60
196 190 183 181 183 183 177 172 171 171 167 156 153 145 147 149 130 127 131 133 139 146 149 138 145 135 107 80 64 40 38 49 52 75 33 352 350 22 62 55 39 49
194 188 186 184 185 179 175 167 160 148 150 139 133 130 136 138 127 130 137 146 148 141 140 140 140 153 149 141 117 96 57 44 108 116 90 358 360 84 106 84 67 47